RH
67 67 68 68 68 68 67 66 66 64 62 63 62 61 60 60 59 55 53 51 49 46 47 44 41 44 27 14 17 12 30 25 16 19 20 22 20 21 21 19 22 27 26 22 24 25 24
66 67 68 69 69 69 68 66 67 66 63 60 62 61 59 56 57 57 49 50 46 45 45 39 39 49 17 16 12 12 14 15 18 22 22 24 24 20 22 23 26 26 28 28 25 24 22
67 67 68 69 70 70 68 68 68 65 64 62 62 62 60 57 57 54 46 47 43 45 40 34 35 13 18 20 12 14 15 17 18 22 25 22 25 24 25 27 22 24 32 28 26 25 28
68 68 68 69 69 70 70 69 68 66 64 62 62 62 58 59 55 50 44 42 44 41 35 35 35 17 21 16 15 15 16 16 15 18 22 22 26 28 30 25 22 26 28 34 22 28 31
68 69 70 68 68 68 69 69 68 66 65 63 61 57 62 58 52 46 46 41 44 42 35 32 26 22 16 20 18 16 18 21 17 19 25 15 30 31 24 27 37 29 50 36 32 22 27
68 70 71 68 68 68 68 68 68 66 65 64 59 59 59 61 57 51 46 41 46 36 31 8 8 26 16 18 20 19 18 19 22 25 32 31 31 29 28 35 64 40 48 40 39 30 29
66 69 70 69 68 68 69 68 68 66 65 65 61 60 53 55 54 50 48 37 36 34 20 21 20 16 17 20 19 23 21 20 22 25 31 31 35 40 32 31 29 40 48 52 40 26 36
64 67 69 69 68 68 68 68 67 67 66 64 60 61 55 45 44 48 44 30 38 35 28 19 17 17 18 23 21 25 20 27 29 34 29 39 44 30 26 28 34 36 52 65 41 31 34
63 64 66 68 68 68 69 69 67 67 68 64 57 56 58 51 49 47 36 37 36 33 36 23 20 20 24 22 25 30 24 32 30 37 41 42 29 25 28 33 39 45 61 59 55 42 43
64 62 63 66 67 68 68 69 67 68 69 67 55 54 52 53 55 34 37 33 39 44 52 29 23 24 22 27 32 22 25 39 39 46 38 39 25 32 37 30 40 68 37 42 50 66 93
64 61 61 64 65 66 68 68 67 68 70 69 56 54 48 52 43 38 38 37 40 51 92 31 24 20 24 26 28 26 27 30 44 45 48 48 38 43 40 39 42 53 45 49 52 79 89
65 64 60 61 63 64 66 68 67 68 70 68 56 54 52 41 45 40 39 44 50 87 73 34 25 26 26 26 26 24 36 32 35 49 34 42 33 47 49 41 40 49 58 53 51 71 99
67 65 61 59 60 62 64 66 67 67 70 61 57 52 42 28 45 44 46 52 84 72 28 34 34 28 28 31 28 27 47 68 69 75 58 48 43 44 43 62 47 70 74 92 82 92 87
65 67 66 60 59 61 61 64 66 67 71 61 51 48 45 33 41 49 56 58 65 31 29 27 27 26 30 31 31 29 40 52 56 66 76 75 64 54 44 70 83 83 83 96 100 78 65
68 66 69 64 59 59 60 61 65 68 71 66 55 51 44 42 42 53 58 83 57 42 38 36 31 26 30 33 31 36 64 73 78 79 80 86 43 44 50 49 68 63 86 65 96 87 96
75 70 70 70 63 60 59 60 62 67 71 61 50 40 47 40 45 61 74 49 48 44 30 28 40 34 38 45 44 49 59 69 81 69 69 81 93 43 46 52 57 70 72 87 96 100 96
78 74 70 72 70 64 60 60 60 66 66 54 59 45 44 43 51 60 90 56 51 32 36 39 39 47 64 51 41 45 57 61 65 51 60 83 88 61 52 73 78 80 89 77 82 89 98
81 78 71 70 76 69 62 59 58 64 62 63 57 62 46 48 58 48 68 49 33 44 37 42 47 62 61 47 68 43 48 53 60 58 73 85 96 98 72 85 79 82 80 78 96 90 92
81 79 76 77 74 76 67 59 58 63 58 62 71 51 53 53 87 59 47 40 39 40 37 39 43 46 51 45 64 51 38 42 43 51 77 91 94 94 76 91 84 94 91 88 87 95 96
83 82 80 79 74 81 73 61 58 62 56 64 81 98 56 46 55 87 69 40 46 46 37 36 38 39 39 36 34 55 38 44 43 45 48 64 92 85 63 54 76 80 83 92 92 98 90
85 84 82 81 76 73 77 66 56 60 55 64 80 75 66 90 58 55 64 60 39 47 42 40 42 38 62 69 32 33 33 34 47 57 66 76 96 71 64 60 66 72 77 84 99 82 98
88 86 85 84 83 79 81 73 60 58 53 65 98 100 92 62 45 54 54 67 42 45 59 42 45 34 35 74 55 61 36 38 41 51 55 81 90 78 80 63 81 87 77 82 85 83 89
89 88 86 86 85 81 81 80 65 57 47 72 53 58 100 61 50 69 70 58 54 49 39 30 37 41 38 36 38 40 45 41 41 53 53 77 89 91 88 58 67 88 79 82 90 91 81
90 89 88 87 86 83 84 83 70 60 60 63 56 88 100 96 77 73 45 59 47 42 66 33 33 41 53 41 40 44 50 47 47 48 47 70 79 79 92 68 64 76 84 79 78 68 70
90 90 89 88 86 85 87 84 74 62 60 63 57 79 100 98 77 55 47 52 46 47 42 41 36 44 44 51 64 57 43 48 53 50 56 58 68 91 94 82 51 70 67 65 80 69 81
92 91 90 89 88 87 88 86 78 65 60 66 64 66 98 98 79 47 59 60 79 82 62 51 54 48 56 68 69 74 62 47 45 56 51 42 58 87 88 90 75 73 43 54 81 94 65
93 92 91 89 89 88 89 87 82 71 62 68 73 68 90 95 59 59 81 70 59 74 92 72 80 68 50 79 78 73 51 41 56 45 94 91 92 93 87 88 60 39 36 51 53 56 65
95 94 93 90 89 89 89 88 83 75 70 69 76 66 85 98 65 50 46 61 60 79 90 88 82 79 88 88 82 83 77 79 73 40 73 78 91 90 78 84 72 35 38 41 62 59 69
97 95 94 92 91 90 89 88 84 76 73 65 78 58 60 98 88 60 59 58 63 59 83 85 90 79 83 91 90 89 82 90 77 72 64 71 71 85 48 46 40 43 37 39 45 62 72
Wind_Speed
11 12 12 12 13 13 13 13 12 12 13 12 11 9 9 9 8 7 7 9 8 8 9 11 12 11 7 10 8 17 20 16 12 13 17 13 14 9 8 4 7 5 8 6 5 5 7
11 11 11 12 12 13 13 13 13 12 12 12 11 9 8 9 8 6 6 8 8 8 7 10 14 17 5 9 9 17 12 12 13 15 12 12 9 5 4 3 5 6 7 11 6 4 7
10 11 11 11 12 13 13 13 13 12 12 12 11 9 9 10 6 4 6 7 7 7 6 8 10 3 15 7 9 15 12 8 8 8 8 9 9 8 7 6 4 6 6 11 6 3 4
10 9 10 11 12 12 13 14 14 13 12 13 13 11 11 8 5 4 5 4 5 7 6 6 9 3 6 1 6 17 13 7 5 6 5 6 6 4 1 3 6 5 2 7 7 3 5
9 9 10 11 11 12 13 13 14 13 13 14 13 11 11 8 7 4 4 2 6 7 8 10 4 4 5 4 13 14 13 9 9 4 5 4 4 3 8 12 1 3 6 14 13 10 6
8 8 9 10 11 12 13 13 14 14 13 14 13 11 11 8 7 6 5 5 8 5 7 4 7 2 4 8 9 11 17 5 4 10 3 4 2 5 9 11 3 12 10 9 16 8 13
7 8 9 9 11 11 12 13 14 14 13 13 13 12 7 10 7 7 6 5 3 2 12 8 5 4 6 12 4 13 19 7 4 2 5 4 9 8 9 7 6 11 12 18 18 12 14
6 7 8 9 10 11 12 13 14 13 13 13 13 15 5 7 8 7 5 3 4 2 7 5 3 6 2 6 6 16 15 8 7 8 11 2 7 7 8 9 8 13 16 11 10 18 20
5 5 7 8 10 11 12 13 13 14 13 12 13 11 9 7 8 4 6 5 3 5 0 4 3 4 4 6 6 12 14 8 5 8 10 6 4 8 8 7 15 14 7 10 16 24 15
4 4 6 7 9 10 11 12 13 14 13 11 12 11 9 6 3 2 4 2 3 4 2 5 3 5 3 0 3 6 8 3 6 6 6 4 6 8 10 8 12 8 10 17 21 13 4
3 3 4 6 8 9 11 12 13 13 13 10 11 12 7 10 0 2 3 2 4 2 3 3 3 2 1 7 7 6 6 5 4 6 4 1 6 6 9 8 11 9 24 22 19 7 5
3 2 2 4 6 9 10 11 12 13 13 9 7 13 7 2 4 2 2 3 2 2 5 2 2 5 3 5 3 7 6 8 3 4 4 2 3 2 3 14 3 17 19 14 3 2 2
4 2 1 2 5 7 10 11 12 13 12 9 5 8 6 3 2 1 2 2 2 7 1 7 5 6 6 6 3 7 6 9 7 9 8 6 3 4 4 5 3 16 13 7 11 6 5
6 4 3 1 3 6 9 11 12 13 12 8 5 7 3 4 2 2 2 1 9 0 5 3 3 7 3 7 1 6 6 4 9 5 4 5 5 4 6 4 4 7 5 5 5 6 10
8 6 4 3 2 4 7 10 12 13 11 8 6 3 1 3 1 2 3 7 1 3 2 7 6 4 1 2 3 7 5 2 2 6 4 6 4 6 5 3 3 6 5 2 4 9 5
8 8 6 5 4 3 6 9 11 12 12 7 3 2 3 1 0 2 3 4 2 2 3 3 4 5 5 8 7 7 5 3 3 0 2 2 7 2 4 4 3 5 3 5 3 6 8
10 9 8 7 5 3 4 7 10 13 12 7 3 2 1 2 1 1 5 3 4 2 2 4 2 2 2 4 3 3 2 3 1 2 4 2 3 4 4 2 5 0 3 3 2 2 3
12 11 10 8 6 4 3 6 9 12 14 4 3 2 2 3 3 4 3 2 1 3 1 2 2 2 1 3 2 3 3 3 5 1 2 2 1 6 3 1 1 0 3 5 4 7 4
13 12 11 9 8 5 3 5 8 10 10 4 3 2 3 2 2 3 2 3 1 3 3 2 2 1 2 2 2 4 3 6 5 2 2 2 2 7 4 3 1 4 6 4 1 0 8
14 13 13 10 9 7 5 4 6 8 8 2 2 1 1 3 2 5 4 4 4 1 2 1 1 2 3 4 7 3 3 3 5 2 1 2 4 7 8 10 1 7 3 6 7 4 6
16 15 14 12 11 10 7 5 4 6 6 2 3 1 1 1 2 3 2 2 4 4 1 4 4 6 3 2 4 5 3 2 5 5 4 3 5 8 15 20 14 15 16 7 11 16 5
17 17 16 14 12 11 9 8 5 4 5 1 1 3 2 2 0 3 3 5 6 3 7 4 4 4 7 6 6 4 4 3 1 5 4 4 6 6 9 8 7 8 11 10 12 13 16
19 18 17 16 15 14 11 9 6 3 1 2 1 1 5 2 2 1 3 4 4 7 5 2 5 1 7 6 3 4 4 6 4 5 2 3 3 5 8 7 12 7 10 8 4 6 7
21 19 18 17 16 15 13 12 9 7 5 1 2 4 4 2 2 5 4 3 6 5 3 2 4 4 1 3 6 4 4 5 5 6 5 2 4 3 8 11 6 6 2 6 11 12 13
22 21 20 18 17 16 15 14 12 9 7 2 1 2 3 3 4 2 6 4 5 3 3 4 5 4 2 3 3 4 3 2 6 5 6 5 3 4 3 3 12 2 4 2 3 18 5
23 23 22 21 19 18 18 17 15 12 10 2 2 1 3 4 5 7 5 6 4 4 2 4 3 3 0 1 1 2 3 2 2 5 2 4 5 2 4 3 7 5 5 5 7 7 6
25 24 24 23 22 21 21 20 18 16 14 3 1 0 3 2 2 3 5 6 5 3 2 3 4 3 1 2 2 3 3 2 3 4 5 2 3 6 7 6 10 4 3 3 6 10 12
25 25 25 25 24 23 22 21 19 18 17 6 2 2 4 3 1 2 3 5 3 3 5 4 4 2 1 1 2 2 2 3 2 5 6 8 7 5 3 4 11 4 3 4 7 7 5
11 23 26 25 25 25 24 23 22 21 21 11 3 2 1 3 0 3 5 4 3 2 4 3 1 4 5 2 1 2 2 2 2 6 2 4 8 5 9 8 2 7 8 5 4 5 4
Wind_Direction
75 67 61 56 52 48 45 43 41 39 38 38 36 33 29 25 20 16 11 6 3 8 6 355 336 323 305 55 27 350 352 356 0 354 17 8 25 356 36 358 332 5 6 320 289 297 284
78 69 62 56 51 47 43 39 36 35 32 31 28 27 24 22 14 7 4 2 7 7 14 358 334 334 39 70 283 355 351 9 8 1 29 25 0 330 352 14 347 332 307 278 260 259 268
77 67 62 56 49 44 39 35 31 29 26 23 21 18 14 4 8 8 8 6 12 25 6 349 333 329 61 79 9 11 359 24 7 6 10 20 353 34 309 333 27 273 284 286 175 225 25
75 64 60 53 47 41 36 32 26 24 22 18 17 19 5 11 36 22 7 22 42 14 3 304 313 47 78 154 352 15 3 357 351 359 7 320 310 279 10 272 232 249 176 3 347 36 153
75 65 57 50 43 38 34 30 25 22 21 18 20 24 26 33 40 2 358 337 282 283 308 286 286 295 66 147 357 6 356 335 329 326 312 294 293 324 17 333 333 50 313 326 316 318 279
77 65 54 47 42 35 30 26 23 22 22 18 20 19 26 29 25 15 352 273 321 249 244 256 33 96 66 353 332 355 351 284 279 288 253 322 283 55 15 24 5 310 313 295 301 295 300
82 65 53 45 40 33 28 24 21 21 22 17 13 2 360 25 15 355 311 262 242 106 33 62 25 54 0 340 244 11 342 313 320 63 7 11 55 24 354 1 313 280 298 304 297 326 350
87 67 53 42 35 28 24 21 19 19 21 18 14 8 5 6 356 329 285 15 50 56 86 64 48 84 55 316 344 6 358 35 4 28 345 62 65 357 327 312 342 324 313 304 295 341 315
94 72 53 41 31 25 21 17 15 15 13 16 18 15 1 334 338 317 58 59 4 338 328 54 48 19 343 340 32 356 13 334 28 17 1 55 9 330 325 345 353 326 295 327 304 317 300
104 77 53 38 27 21 17 14 11 12 8 6 12 6 2 326 315 333 57 71 346 330 165 12 20 37 325 82 65 53 16 16 357 12 348 67 10 350 338 11 352 308 348 311 303 320 294
129 83 53 34 21 14 12 10 9 8 5 1 9 10 347 358 327 41 40 339 331 269 70 28 35 357 260 63 296 45 51 347 46 327 352 317 14 351 349 336 327 280 313 300 283 272 36
163 122 60 34 12 8 6 6 7 5 4 2 10 4 331 298 91 39 321 309 263 44 348 40 1 359 356 65 43 331 42 357 132 293 220 240 110 58 331 298 11 329 315 313 80 166 356
180 183 143 27 4 1 2 1 3 2 4 1 347 358 16 341 43 336 298 232 25 63 71 344 342 353 328 349 8 9 73 35 26 1 22 303 101 124 324 316 304 352 345 348 3 356 249
201 212 203 235 349 354 357 357 357 358 359 355 340 316 42 48 36 310 244 246 61 260 34 30 319 304 44 356 55 2 14 49 35 357 292 344 326 33 358 117 221 312 71 113 291 320 295
203 220 224 237 294 341 350 354 354 351 349 338 309 200 188 61 332 284 273 51 92 26 323 347 295 307 126 120 310 360 85 61 36 12 60 353 279 130 79 62 52 322 33 282 261 252 270
211 217 223 237 259 310 341 349 349 345 346 335 285 254 88 38 202 256 63 106 94 26 333 268 22 48 327 350 10 31 26 257 147 178 121 69 300 77 141 148 176 117 282 40 335 329 302
209 212 228 236 249 267 324 342 344 343 344 331 264 286 92 126 232 41 79 92 121 112 356 15 26 317 348 311 337 322 300 159 2 92 129 100 126 281 254 175 168 10 348 1 159 164 229
208 212 223 237 236 243 292 333 341 345 340 295 294 307 141 184 53 38 68 82 73 145 174 119 74 111 223 334 297 306 290 121 145 251 324 86 288 280 293 329 27 337 218 138 127 283 254
213 212 216 217 238 221 255 314 334 346 7 319 322 327 209 202 77 98 165 98 70 154 169 171 127 179 137 270 331 219 336 117 149 339 53 178 243 307 313 359 336 216 204 180 159 204 222
213 214 213 211 225 202 221 270 322 341 353 310 334 346 26 63 79 109 146 157 148 35 92 58 83 139 223 243 192 279 284 127 148 191 84 145 265 199 216 242 9 293 201 183 157 232 234
209 212 213 211 218 227 215 231 281 328 337 304 14 56 71 12 39 94 103 132 144 183 223 197 200 231 157 275 287 212 202 287 133 138 188 157 259 252 261 268 272 274 274 236 198 235 212
209 210 213 213 207 201 209 217 241 302 320 274 148 122 323 91 277 147 150 214 196 144 144 202 222 151 187 195 203 266 317 233 279 172 229 118 276 331 281 260 206 246 242 229 238 258 260
206 208 212 211 204 199 200 205 222 257 301 53 33 42 104 152 173 133 223 169 204 137 194 38 194 175 227 252 346 359 336 301 249 185 223 188 303 333 272 308 299 290 229 201 235 218 214
205 206 206 210 206 199 192 192 205 218 222 318 175 109 96 237 187 203 165 112 178 193 163 127 175 168 40 318 283 222 255 249 257 250 215 266 294 246 281 314 345 241 226 175 218 247 256
204 203 203 206 206 198 193 192 200 208 214 265 122 147 139 229 168 180 151 155 111 110 191 189 204 62 20 301 316 292 186 228 206 207 201 202 278 290 291 261 275 219 214 224 117 306 208
204 203 200 200 203 200 193 191 193 197 195 229 178 7 113 123 231 118 150 158 177 192 143 165 109 47 262 247 290 300 288 307 219 165 222 243 219 163 328 287 267 218 162 103 115 287 196
204 203 201 199 199 198 195 191 188 186 186 201 111 345 114 158 217 139 170 180 187 125 104 133 164 160 7 197 223 220 271 69 283 256 174 188 234 214 229 259 276 161 177 132 42 256 341
203 203 204 204 200 200 195 193 188 184 180 173 125 167 129 187 205 266 197 143 97 206 166 161 87 302 127 186 189 217 185 221 340 245 188 182 165 210 218 280 286 153 306 142 230 322 316
254 211 206 207 200 197 195 193 189 183 179 186 127 170 105 110 111 1 28 19 43 46 123 174 202 150 179 133 290 48 222 135 192 276 64 278 194 203 184 233 154 207 209 274 325 292 312